[[{"header":{"parameterUnit":"m.s-1","parameterCategory":1,"la1":30.2991,"la2":30.254,"lo1":-89.0895,"lo2":-89.0444,"dy":0.0017,"dx":0.0017,"nx":28,"ny":28,"refTime":"2024-10-14T09:00:00:Z","depth":0,"parameterNumber":2,"parameterNumberName":"U-component_of_WINDS"},"data":[0,0,0,0,0,0,0,0,0,0,0,0,0,0,0,0,0,0,0,0,0,0,0,0,0,0,0,0,0,0,0,0,0,0,0,0,0,0,0,0,0,0,0,0,0,0,0,0,0,0,0,0,0,0,0,0,0,0,3.368,3.3681,0,3.3823,3.3824,3.3826,3.3774,3.377,3.3767,3.3764,3.3913,3.392,3.3926,0,0,0,0,0,0,0,0,0,0,0,0,0,3.3363,3.3369,3.368,3.3681,3.3683,3.3822,3.3824,3.3826,3.3774,3.377,3.3766,3.3763,3.391,3.3919,3.3927,0,0,0,0,0,0,0,0,0,0,0,0,0,3.3503,3.3371,3.3679,3.3674,3.3675,3.3822,3.3824,3.3827,3.3775,3.377,3.3765,3.3761,3.3908,3.3918,3.3928,3.409,0,0,3.396,3.3965,0,0,0,0,0,0,0,0,3.3495,3.3514,3.3673,3.3674,3.3676,3.3775,3.3767,3.3915,3.3776,3.3737,3.3764,3.3758,3.3871,3.3884,3.3922,3.4097,3.4103,3.3961,3.3967,3.3972,3.3975,0,0,0,0,0,0,0,3.3485,3.3508,3.3736,3.3675,3.3677,3.3665,3.3679,3.3795,3.383,3.374,3.3737,3.3754,3.3871,3.3912,3.3925,3.4105,3.3961,3.397,3.3977,3.3981,3.4419,3.4424,0,0,0,0,0,0,3.3475,3.35,3.3732,3.374,3.3571,3.3674,3.3691,3.3748,3.3828,3.3836,3.3758,3.3751,3.3896,3.3913,3.393,3.4123,3.3972,3.3982,3.3988,3.4414,3.442,3.4426,0,0,0,0,0,0,3.3468,3.3496,3.3726,3.362,3.3648,3.3685,3.375,3.3754,3.3794,3.3842,3.3848,3.3793,3.3893,3.3915,3.405,3.4127,3.3986,3.3996,3.4407,3.4416,3.4423,3.4511,0,0,0,0,0,0,3.3459,3.3494,3.3555,3.3621,3.3654,3.3843,3.3755,3.376,3.3812,3.3805,3.3876,3.3884,3.3891,3.4035,3.406,3.4139,3.4004,3.44,3.4411,3.442,3.4501,3.4521,3.4538,0,0,0,0,0,3.3448,3.3575,3.3558,3.3587,3.3731,3.3848,3.3866,3.3872,3.3819,3.3881,3.3911,3.3881,3.4115,3.4049,3.4077,3.4161,3.4396,3.4408,3.442,3.4493,3.4517,3.4538,0,0,0,0,0,0,3.3518,3.3584,3.3566,3.3718,3.3778,3.3839,3.3917,3.3897,3.3974,3.3963,3.3967,3.3984,3.4122,3.4155,3.408,3.4321,3.4247,3.4266,3.4294,3.4317,3.4335,3.4323,3.4013,0,0,0,0,0,3.3551,3.364,3.3693,3.3822,3.3852,3.388,3.3931,3.393,3.3992,3.4017,3.4057,3.4119,3.4206,3.4264,3.4347,3.4507,3.4521,3.4578,3.4596,3.4611,3.4626,3.4712,3.4737,3.4466,3.4465,3.4465,0,0,3.362,3.3667,3.3723,3.3837,3.3883,3.3974,3.3901,3.4002,3.407,3.4033,3.4161,3.4193,3.4263,3.441,3.4477,3.4442,3.4705,3.4626,3.4638,3.4645,3.4727,3.4752,3.4775,3.4474,3.4472,3.4471,0,0,3.3792,3.3838,3.3949,3.3997,3.4067,3.4084,3.4111,3.4176,3.4195,3.4324,3.4298,3.4379,3.453,3.458,3.4625,3.4817,3.4792,3.4844,3.4939,3.5022,3.5043,3.5062,3.5129,3.5153,3.4859,3.486,3.486,0,3.387,3.4006,3.4009,3.4112,3.4162,3.4132,3.4245,3.4291,3.4385,3.4421,3.438,3.4568,3.4613,3.477,3.4817,3.4855,3.4886,3.4835,3.504,3.5059,3.5077,3.514,3.5166,3.4865,3.4865,3.4864,3.4864,0,3.4097,3.4192,3.4274,3.4364,3.4424,3.4532,3.4551,3.4612,3.4606,3.4628,3.4759,3.4812,3.4905,3.4943,3.4938,3.51,3.5076,3.5038,3.4964,3.5108,3.5168,3.5192,3.4874,3.4871,3.487,3.4868,0,0,3.4316,3.4406,3.4436,3.4476,3.4552,3.4625,3.4732,3.4821,3.4872,3.4939,3.5027,3.5155,3.512,3.5172,3.5173,3.5246,3.5392,3.5199,3.5201,3.5231,3.5572,3.5598,3.5627,3.5377,3.5382,3.5386,3.5565,0,3.4493,3.4677,3.4683,3.4852,3.4939,3.4912,3.5004,3.5061,3.5084,3.5162,3.5189,3.5279,3.5227,3.5257,3.5329,3.5359,3.546,3.5347,3.5459,3.5462,3.5439,3.5658,3.5687,3.5854,3.5589,3.5593,3.5596,0,3.4723,3.4795,3.4973,3.5034,3.5071,3.5154,3.5236,3.5311,3.5374,3.5386,3.5444,3.5434,3.5542,3.5467,3.5616,3.5538,3.5585,3.5607,3.5613,3.5622,3.5536,3.5671,3.5907,3.5932,3.5633,3.563,3.5627,0,3.4862,3.5004,3.5128,3.5164,3.524,3.5298,3.5333,3.5391,3.5444,3.5517,3.5551,3.5636,3.5682,3.5747,3.5761,3.5705,3.591,3.5835,3.5922,3.5922,3.5964,3.5961,3.621,3.5998,3.5998,3.5998,3.5997,0,3.5058,3.5167,3.5192,3.5268,3.5389,3.5395,3.5515,3.5546,3.5598,3.568,3.5663,3.574,3.5754,3.5834,3.5846,3.5966,3.5988,3.6,3.6001,3.6,3.5999,3.6029,3.6017,3.6004,3.6003,3.6001,3.6,0,3.5233,3.5254,3.5387,3.5448,3.5466,3.5552,3.5604,3.5677,3.5699,3.5802,3.5827,3.5861,3.5955,3.5975,3.6087,3.6094,3.6237,3.6228,3.6215,3.6214,3.6298,3.6289,3.6573,3.661,3.6377,3.6379,3.6381,0,3.5355,3.5438,3.5508,3.556,3.5597,3.5683,3.5737,3.5747,3.5803,3.5882,3.5945,3.6037,3.611,3.6261,3.6296,3.6381,3.6373,3.6467,3.6385,3.6381,3.6372,3.6365,3.6373,3.6481,3.6484,3.6486,3.6488,0,3.5569,3.5575,3.5653,3.5735,3.5799,3.5864,3.5926,3.5971,3.5989,3.6054,3.6148,3.6205,3.6318,3.6409,3.6494,3.653,3.6512,3.6513,3.6537,3.6536,3.6524,3.6529,3.6255,3.6506,3.6504,3.6503,3.6502,3.6501,3.572,3.5792,3.5852,3.5939,3.5986,3.6044,3.6115,3.6145,3.6224,3.6316,3.6318,3.6421,3.6482,3.6594,3.6635,3.6716,3.6687,3.6723,3.6731,3.6739,3.6746,3.6513,3.6732,3.6732,3.6731,3.6731,3.6731,0,3.5931,3.5968,3.6048,3.6134,3.6203,3.618,3.6247,3.6306,3.6396,3.6455,3.6527,3.6635,3.6723,3.6765,3.6852,3.6909,3.6903,3.6931,3.6926,3.6934,3.6768,3.6737,3.6935,3.6935,3.6935,3.6935,3.6935,3.6935,3.6049,3.6169,3.6182,3.6325,3.6361,3.6461,3.6501,3.6555,3.6601,3.6723,3.6795,3.6822,3.6874,3.6964,3.7043,3.7054,3.7086,3.7118,3.7124,3.6967,3.6946,3.6926,3.6897,3.7125,3.7126,3.7283,3.7284,3.7286]},{"header":{"parameterUnit":"m.s-1","parameterCategory":1,"la1":30.2991,"la2":30.254,"lo1":-89.0895,"lo2":-89.0444,"dy":0.0017,"dx":0.0017,"nx":28,"ny":28,"refTime":"2024-10-14T09:00:00:Z","depth":0,"parameterNumber":3,"parameterNumberName":"V-component_of_WINDS"},"data":[0,0,0,0,0,0,0,0,0,0,0,0,0,0,0,0,0,0,0,0,0,0,0,0,0,0,0,0,0,0,0,0,0,0,0,0,0,0,0,0,0,0,0,0,0,0,0,0,0,0,0,0,0,0,0,0,0,0,1.4619,1.462,0,1.4678,1.4679,1.4679,1.4645,1.4644,1.4642,1.464,1.4701,1.4704,1.4707,0,0,0,0,0,0,0,0,0,0,0,0,0,1.4477,1.448,1.4619,1.462,1.4621,1.4678,1.4679,1.468,1.4646,1.4643,1.4641,1.464,1.47,1.4704,1.4707,0,0,0,0,0,0,0,0,0,0,0,0,0,1.4537,1.4481,1.4619,1.4611,1.461,1.4678,1.4679,1.468,1.4646,1.4643,1.4641,1.4639,1.4699,1.4703,1.4708,1.4787,0,0,1.4722,1.4724,0,0,0,0,0,0,0,0,1.4534,1.4543,1.4611,1.4611,1.4611,1.4652,1.4651,1.4716,1.4647,1.4633,1.464,1.4637,1.4687,1.4692,1.4709,1.479,1.4792,1.4723,1.4726,1.4728,1.4729,0,0,0,0,0,0,0,1.453,1.454,1.4643,1.4612,1.4612,1.4604,1.4609,1.4663,1.4673,1.4634,1.4631,1.4639,1.4686,1.4704,1.471,1.4793,1.4723,1.4727,1.473,1.4732,1.4941,1.4944,0,0,0,0,0,0,1.4526,1.4537,1.4641,1.4644,1.4566,1.4608,1.4615,1.4641,1.4672,1.4674,1.4641,1.4637,1.4697,1.4704,1.4712,1.4806,1.4728,1.4732,1.4735,1.4938,1.4942,1.4945,0,0,0,0,0,0,1.4523,1.4536,1.4638,1.459,1.4602,1.4613,1.4643,1.4644,1.4662,1.4678,1.4679,1.4657,1.4696,1.4705,1.4768,1.4807,1.4734,1.4739,1.4935,1.4939,1.4943,1.4995,0,0,0,0,0,0,1.4519,1.4535,1.4566,1.4591,1.4605,1.4694,1.4646,1.4647,1.467,1.4666,1.4694,1.4696,1.4694,1.4761,1.4773,1.4813,1.4742,1.4932,1.4937,1.4942,1.499,1.5,1.5009,0,0,0,0,0,1.4515,1.4578,1.4567,1.458,1.4643,1.4697,1.4705,1.4702,1.4673,1.4704,1.4714,1.4695,1.4801,1.4768,1.4781,1.4823,1.4929,1.4935,1.4941,1.4986,1.4998,1.5009,0,0,0,0,0,0,1.4558,1.4581,1.457,1.4644,1.4668,1.4691,1.4729,1.4715,1.4749,1.4743,1.4738,1.4745,1.481,1.4823,1.4785,1.49,1.4861,1.487,1.489,1.4902,1.4912,1.4907,1.4746,0,0,0,0,0,1.4576,1.4617,1.4636,1.4699,1.4712,1.4719,1.4742,1.4737,1.4762,1.4773,1.4787,1.4813,1.4851,1.4877,1.4914,1.4991,1.4996,1.5026,1.5036,1.5044,1.5052,1.5092,1.5105,1.4965,1.4965,1.4964,0,0,1.4614,1.4632,1.4658,1.4708,1.4727,1.4769,1.4728,1.4775,1.4806,1.478,1.484,1.4852,1.488,1.495,1.4981,1.4962,1.5091,1.5051,1.5058,1.5061,1.51,1.5113,1.5125,1.4969,1.4968,1.4967,0,0,1.4705,1.4723,1.4777,1.4796,1.4825,1.4829,1.4842,1.4866,1.4872,1.4933,1.4914,1.4951,1.5018,1.5038,1.5058,1.5155,1.5138,1.5167,1.5218,1.5257,1.5268,1.5278,1.5312,1.5325,1.5174,1.5174,1.5175,0,1.4749,1.4812,1.4807,1.4855,1.4877,1.4855,1.4909,1.4928,1.4967,1.4983,1.4961,1.5044,1.5061,1.5135,1.5159,1.5175,1.5189,1.5164,1.5267,1.5277,1.5286,1.5319,1.5331,1.5178,1.5177,1.5177,1.5177,0,1.4864,1.4908,1.4949,1.4987,1.5013,1.5064,1.5066,1.5094,1.5086,1.5092,1.5153,1.5173,1.5213,1.523,1.5224,1.5303,1.529,1.5268,1.5228,1.5303,1.5333,1.5346,1.5182,1.5181,1.518,1.5179,0,0,1.4985,1.5018,1.5033,1.505,1.5079,1.5113,1.5162,1.5201,1.5224,1.5252,1.5293,1.535,1.5329,1.5351,1.5346,1.5381,1.5455,1.5354,1.5354,1.5372,1.5543,1.556,1.5575,1.5444,1.5447,1.5449,1.5541,0,1.5077,1.5165,1.5161,1.5242,1.5282,1.5261,1.5304,1.5326,1.5333,1.5367,1.5374,1.5415,1.5384,1.5397,1.543,1.5439,1.549,1.5433,1.5483,1.5484,1.5476,1.5591,1.5609,1.5695,1.5553,1.5555,1.5556,0,1.5197,1.5228,1.5313,1.5335,1.5352,1.5391,1.5425,1.5459,1.5484,1.5486,1.5509,1.5499,1.5548,1.5507,1.5575,1.5536,1.5556,1.5563,1.5567,1.5571,1.5525,1.5598,1.5722,1.5735,1.5575,1.5573,1.5572,0,1.5277,1.5339,1.5398,1.5413,1.544,1.5468,1.548,1.5502,1.5525,1.5555,1.557,1.5606,1.5625,1.5652,1.5651,1.5621,1.572,1.5679,1.5723,1.5723,1.5745,1.5744,1.5874,1.5758,1.5758,1.5758,1.5757,0,1.538,1.5433,1.5434,1.547,1.5528,1.5523,1.5581,1.559,1.561,1.5647,1.563,1.5666,1.5662,1.5698,1.5697,1.5753,1.5762,1.5765,1.5764,1.5766,1.5766,1.578,1.5774,1.5761,1.576,1.576,1.5759,0,1.5479,1.5482,1.5544,1.5564,1.5571,1.5613,1.563,1.5664,1.5668,1.5716,1.5726,1.5734,1.5774,1.5776,1.5823,1.5822,1.589,1.5883,1.5882,1.5881,1.5925,1.592,1.6068,1.6087,1.5959,1.596,1.5961,0,1.5545,1.5585,1.5609,1.5633,1.5647,1.5686,1.5709,1.5705,1.5729,1.5759,1.579,1.5829,1.586,1.5925,1.5935,1.597,1.5963,1.6013,1.5969,1.5969,1.5964,1.5961,1.5965,1.6021,1.6023,1.6024,1.6025,0,1.5662,1.5661,1.5695,1.573,1.5758,1.5785,1.5809,1.583,1.5828,1.5857,1.5898,1.5922,1.5969,1.6008,1.6042,1.6054,1.604,1.6038,1.6051,1.6054,1.6051,1.6053,1.5905,1.6035,1.6034,1.6033,1.6033,1.6033,1.5746,1.578,1.5802,1.5841,1.5859,1.5882,1.5915,1.5923,1.5957,1.5995,1.5991,1.6036,1.6058,1.6103,1.6118,1.6153,1.6136,1.6154,1.6158,1.6163,1.6167,1.6045,1.6159,1.6159,1.6159,1.6158,1.6158,0,1.5862,1.5875,1.591,1.5945,1.5975,1.5957,1.5984,1.601,1.605,1.6072,1.6103,1.615,1.6187,1.6198,1.6234,1.626,1.6254,1.627,1.6268,1.6271,1.6181,1.6166,1.6274,1.6274,1.6274,1.6274,1.6274,1.6274,1.5925,1.5982,1.5984,1.6049,1.6061,1.6106,1.6122,1.6143,1.6161,1.6214,1.6244,1.6251,1.6269,1.6306,1.6339,1.6341,1.6355,1.6373,1.6373,1.6289,1.6277,1.6266,1.6253,1.6377,1.6377,1.646,1.6461,1.6461]}]]